Regional Weather Roundup
Issued by NWS Grand Forks, ND

Home | Current Version | Previous Version | Graphics & Text | Print | Product List | Glossary On
Versions: 1 2 3 4 5 6 7 8 9 10 11 12 13 14 15 16 17 18 19 20 21 22 23 24 25 26 27 28 29 30 31 32 33 34 35 36 37 38 39 40 41 42 43 44 45 46 47 48 49 50
611
ASUS43 KFGF 291310
RWRFGF
PRAIRIE TO PINES  WEATHER ROUNDUP
NATIONAL WEATHER SERVICE EASTERN NORTH DAKOTA/GRAND FORKS ND
800 AM CDT FRI APR 29 2016

 **SATELLITE DATA USED TO AUGMENT SKY COVER AT AUTOMATED STATIONS**
 *****  WEATHER ACROSS EASTERN NORTH DAKOTA  *****

CITY           SKY/WX    TMP DP  RH WIND       PRES   REMARKS
GRAND FORKS    CLOUDY    39  31  72 N10       30.21S
GRAND FRKS AFB PTSUNNY   38  28  66 N12       30.22R
DEVILS LAKE    MOSUNNY   38  28  67 NE3       30.22R
FARGO          CLOUDY    41  35  79 CALM      30.17R
WAHPETON ARPT  CLOUDY    39  34  81 SW6       30.19R
$$

 ***** WEATHER ACROSS CENTRAL AND WESTERN NORTH DAKOTA  *****

CITY           SKY/WX    TMP DP  RH WIND       PRES   REMARKS
BISMARCK       SUNNY     37  30  75 E5        30.19R
MINOT          MOSUNNY   40  23  50 N6        30.20S
JAMESTOWN      SUNNY     40  30  67 NE8       30.17R
MINOT AFB      CLOUDY    36  23  58 N5        30.20S
GARRISON         N/A     37  26  64 NE5       30.18S
WILLISTON      MOSUNNY   37  26  64 NE5       30.18S
DICKINSON      CLOUDY    38  30  73 E7        30.12S
HETTINGER      CLOUDY    39  33  79 E3        30.14R
$$

 *****  OTHER AIRPORT OBSERVATIONS IN OUR AREA  *****

CITY           SKY/WX    TMP DP  RH WIND       PRES   REMARKS
WALHALLA       FAIR      37  23  56 N8        30.26S
GRAFTON AIRPOR FAIR      37  28  70 N8        30.25S
VALLEY CITY AR FAIR      39  28  65 N5        30.20R
CANDO          FAIR      37  23  56 NE7       30.25R
CAVALIER APRT  FAIR      37  27  65 N8        30.25S
GWINNER        FAIR      39  37  93 SW7       30.18R
SHEYENNE NWR     N/A     33  31  91 W3        29.95S
ROLLA          FAIR      36  19  51 N7        30.23S
 ***** THE ABOVE OBSERVATIONS ARE NON NWS ARE NOT QUALITY
       CONTROLLED AND MAY MIS-REPORT RAIN FOR SNOW...
$$

  *****  WEATHER ACROSS NORTHERN MINNESOTA  *****

CITY           SKY/WX    TMP DP  RH WIND       PRES   REMARKS
FLAG ISLAND    SUNNY     39  30  70 NE7       30.24S
WARROAD        SUNNY     39  34  81 NE8       30.24S
ROSEAU         SUNNY     37  32  81 E5        30.24S
HALLOCK        SUNNY     43  30  61 E5        30.24R
THF RVR FALLS  CLOUDY    43  28  56 NE9       30.22R
BAUDETTE       SUNNY     42  30  62 NE9       30.22S
WASKISH        CLOUDY    41  32  70 NE6       30.21R
CROOKSTON      CLOUDY    43  32  65 E7        30.20S
STEPHEN NDAWN    N/A     43  34  70 NE9         N/A
GREENBUSH NDAW   N/A     39  34  81 NE6         N/A
$$
  *****  WEATHER ACROSS CENTRAL AND WEST MINNESOTA  *****

CITY           SKY/WX    TMP DP  RH WIND       PRES   REMARKS
FOSSTON        MOSUNNY   39  32  75 NE9       30.19S
BEMIDJI        CLOUDY    38  31  77 NE5       30.18R
PARK RAPIDS    CLOUDY    40  35  83 CALM      30.16R
ELBOW LAKE     FAIR      38  38 100 SW5       30.20R
WADENA         MOSUNNY   34  34 100 CALM      30.18  FOG
DETROIT LAKES  MOSUNNY   39  37  93 S3        30.18R
MOORHEAD       MOSUNNY   39  36  87 SE6       30.19R
FERGUS FALLS   CLOUDY    39  39 100 SW3       30.18S
MORRIS MN      CLOUDY    39  39 100 W5        30.19R
STAPLES        CLOUDY    36  34  93 CALM      30.18R
$$
  *****  WEATHER ELSEWHERE ACROSS MINNESOTA  *****

CITY           SKY/WX    TMP DP  RH WIND       PRES   REMARKS
DULUTH         MOSUNNY   40  27  59 VRB3      30.18R
INTRNTL FALLS  SUNNY     41  32  70 NE8       30.21S
ELY            CLOUDY    39  30  70 N3        30.19S
CLOQUET        SUNNY     37  27  65 NE3       30.18R
WHEATON        SUNNY     43  39  87 SW5       30.22R
BRAINERD       CLOUDY    38  29  70 CALM      30.18R
HIBBING        MOSUNNY   36  29  75 CALM      30.18R
ALEXANDRIA     CLOUDY    40  38  93 NW8       30.20R
SAINT CLOUD    PTSUNNY   37  37 100 SW3       30.19R
MINNEAPOLIS    CLOUDY    40  38  93 W3        30.20R FOG
$$

  *****  WEATHER ACROSS SOUTH DAKOTA  *****

CITY           SKY/WX    TMP DP  RH WIND       PRES   REMARKS
SIOUX FALLS    CLOUDY    40  36  86 NE8       30.15S
BROOKINGS      CLOUDY    38  37  97 NE3       30.16R
WATERTOWN      CLOUDY    39  36  89 N5        30.17S
HURON          CLOUDY    40  37  89 NE7       30.16S
SISSETON         N/A     42  37  82 W5        30.19R
ABERDEEN       SUNNY     39  36  89 S7        30.21R
MITCHELL       CLOUDY    40  38  93 N6        30.16F
PIERRE         CLOUDY    39  36  89 E3        30.15S
MOBRIDGE       CLOUDY    44  41  89 S3        30.14R
RAPID CITY     CLOUDY    36  33  89 CALM      30.12R
$$

  *****  SOME WEATHER IN NEARBY STATES *****

CITY           SKY/WX    TMP DP  RH WIND       PRES   REMARKS
GLASGOW MT     CLOUDY    40  34  79 E9        30.11S
GREAT FALLS MT CLOUDY    35  33  92 SW3       29.97F
CHEYENNE WY    FOG       31  31 100 SE10      29.98F VSB<1/4 WCI  22
SCOTTSBLUFF NE CLOUDY    36  33  89 CALM      30.06S
OMAHA NE       CLOUDY    45  41  86 N12       30.08F
DES MOINES IA  CLOUDY    47  42  83 N14       30.06F
DAVENPORT IA   CLOUDY    44  40  85 N10       30.09S
CHICAGO IL     CLOUDY    42  40  92 N9        30.08S FOG
EAU CLAIRE WI  MOSUNNY   43  39  86 N7        30.15R
LA CROSSE WI   CLOUDY    42  37  82 N8        30.14F
$$

  *****  SOME NATIONAL WEATHER *****

CITY           SKY/WX    TMP DP  RH WIND       PRES   REMARKS
LA GUARDIA NY  CLOUDY    51  33  50 NE12      30.11R
RALEIGH NC     FOG       61  59  93 VRB3      30.00S VSB 1/2
ATLANTA GA     PTSUNNY   71  57  61 N7        30.03S
NEW ORLEANS LA CLOUDY    76  72  87 SE12      29.93R
OKLAHOMA CITY  CLOUDY    57  55  93 E13       29.80R
ALBUQUERQUE NM PTCLDY    42  39  89 SW3       29.85R
SALT LAKE CITY MOCLDY    45  33  63 E7        29.86S
LOS ANGELES CA MOCLDY    57  49  74 NE5       29.99S
BOISE ID       CLOUDY    48  40  73 NW10      29.90S
SEATTLE WA     CLOUDY    49  41  74 S5        30.08S
$$

*** WEATHER ACROSS MANITOBA...SASKATCHEWAN AND ONTARIO ***
                ***ONTARIO***

CITY           SKY/WX    TMP DP  RH WIND       PRES   REMARKS
GERALDTON      CLOUDY    36  28  75 NE6       30.22R
THUNDER BAY    PTSUNNY   37  30  75 VRB2      30.21S
SIOUX LOOKOUT  PTSUNNY   39  30  70 E3        30.25R
TORONTO        PTSUNNY   45  18  33 E14       30.09S
BIG TROUT LK   FLURRIES  30  27  86 N6        30.33R WCI  24
PICKLE LAKE    DRIZZLE   32  30  93 N6        30.27S
DRYDEN         CLOUDY    41  30  65 NE8       30.23S
KENORA         MOSUNNY   39  30  70 NE5       30.25S
$$
                *** MANITOBA***

CITY           SKY/WX    TMP DP  RH WIND       PRES   REMARKS
BRANDON        MOSUNNY   41  18  38 NE12      30.26S
DAUPHIN        SUNNY     34  21  60 W6        30.30S
ISLAND LAKE    MOSUNNY   34  18  51 CALM      30.38R
PILOT MOUND      N/A     37  19  48 NE7         N/A
THE PAS        MOSUNNY   37  27  65 SE6       30.31S
THOMPSON       PTSUNNY   36  18  48 S6        30.35S
WINNIPEG       MOSUNNY   36  25  64 NE7       30.27S
LYNN LAKE      CLOUDY    37  28  70 SE2       30.22S
CHURCHILL      MOSUNNY   21  19  93 E5        30.47S WCI  15
GILLAM         PTSUNNY   28  21  74 E3        30.42R
$$
                ***SASKATCHEWAN***

CITY           SKY/WX    TMP DP  RH WIND       PRES   REMARKS
ESTEVAN        PTSUNNY   39  19  45 E10       30.21R
KINDERSLEY     PTCLDY    37  25  60 SE12      30.08S
LLOYDMINSTER   PTCLDY    39  27  60 SE9       30.07S
PRINCE ALBERT  PTSUNNY   36  30  80 E7        30.20S
REGINA         MOSUNNY   37  14  38 SE14      30.21R
YORKTON        SUNNY     34  27  75 E3        30.27R
N. BATTLEFORD  SUNNY     41  25  52 SE14      30.14S
LA RONGE       MOSUNNY   39  27  60 VRB2      30.22S
SASKATOON      MOSUNNY   41  27  56 SE10      30.18R
SWIFT CURRENT  CLOUDY    36  28  75 SE7       30.10S
$$
NOTE: THESE ARE AUTOMATED STATIONS WITH LIMITED QUALITY CONTROL
      "FAIR" INDICATES FEW OR NO CLOUDS BELOW 12,000 FEET WITH NO
      SIGNIFICANT WEATHER AND/OR OBSTRUCTIONS TO VISIBILITY.
      SKY/WX - SKY CONDITION AND SIGNIFICANT WEATHER.
      TMP - AIR TEMPERATURE.    DP   - DEWPOINT TEMPERATURE.
      RH  - RELATIVE HUMIDITY.  PRES - PRESSURE.
      HX  - HEAT INDEX.         WCI  - WIND CHILL INDEX.
$




USA.gov is the U.S. government's official web portal to all federal, state and local government web resources and services.